Date,TemperatureHighF,TemperatureAvgF,TemperatureLowF,DewpointHighF,DewpointAvgF,DewpointLowF,HumidityHigh,HumidityAvg,HumidityLow,PressureMaxIn,PressureMinIn,WindSpeedMaxMPH,WindSpeedAvgMPH,GustSpeedMaxMPH,PrecipitationSumIn
2012-10-31,-200,0,200,-100,-100,-100,0,0,100,30.00,30.00,0,-999,0,0.00
2012-11-14,75,74,73,68,67,66,84,78,76,30.15,0.00,7,2,7,0.25
2012-11-15,67,66,66,65,65,65,96,95,95,30.13,30.11,2,2,0,0.00
2012-11-16,72,68,64,66,65,63,96,88,81,30.15,30.09,15,7,23,0.45
2012-11-17,82,72,66,68,62,-100,97,78,62,30.15,30.09,14,-8,27,0.01
2012-11-18,77,71,65,66,64,59,89,79,65,30.18,30.08,10,4,11,0.00
2012-11-19,66,61,58,59,57,55,93,88,78,30.16,30.06,7,2,9,0.00
2012-11-20,82,67,60,65,60,57,93,82,55,30.07,29.98,9,3,12,0.00
2012-11-21,73,64,59,61,57,50,93,78,58,30.07,29.99,10,-4,13,0.00
2012-11-22,74,62,55,57,52,48,81,71,46,30.17,30.04,13,5,19,0.02
2012-11-23,78,63,53,58,52,48,85,69,44,30.20,30.10,10,3,13,0.00
2012-11-24,79,61,51,61,54,47,94,79,44,30.14,30.02,7,2,11,0.00
2012-11-25,73,62,51,59,55,48,93,78,53,30.18,30.09,7,2,10,0.00
2012-11-26,79,69,59,68,63,58,96,83,67,30.25,30.16,8,3,10,0.00
2012-11-27,82,73,67,68,65,62,89,77,61,30.24,30.12,7,2,9,0.00
2012-11-28,76,67,61,67,63,60,95,86,71,30.23,30.13,10,3,14,0.00
2012-11-29,79,71,60,64,62,59,97,76,58,30.25,30.18,10,4,14,0.00
2012-11-30,78,72,68,64,62,59,82,70,58,30.25,30.16,14,5,16,0.00
2012-12-1,81,72,68,66,64,62,85,76,57,30.22,30.14,15,5,21,0.01
2012-12-2,82,72,66,70,65,63,97,81,60,30.26,30.18,10,4,17,0.36
2012-12-3,82,74,71,65,62,58,81,65,48,30.27,30.18,9,4,14,0.00
2012-12-4,80,74,69,66,60,55,83,63,48,30.27,30.17,14,5,14,0.00
2012-12-5,82,74,66,67,62,57,92,70,45,30.17,30.04,10,3,13,0.00
2012-12-6,80,71,66,72,67,63,98,88,73,30.03,29.93,6,2,13,1.03
2012-12-7,82,72,64,73,68,63,98,88,70,30.01,29.90,8,3,13,0.01
2012-12-8,82,73,67,73,70,66,98,88,71,30.07,29.97,9,2,15,1.64
2012-12-9,83,74,68,75,71,68,98,91,76,30.10,30.00,12,2,15,0.16
2012-12-10,85,76,71,76,73,70,99,92,73,30.02,29.87,9,4,13,1.26
2012-12-11,79,75,72,75,73,71,97,94,87,30.04,29.90,9,3,13,0.04
2012-12-12,81,75,70,76,72,70,99,90,75,30.09,30.01,8,2,13,0.10
2012-12-13,73,69,66,72,67,64,98,92,84,30.13,30.01,9,4,16,0.00
2012-12-14,78,70,63,68,64,61,96,83,62,30.16,30.08,11,4,14,0.03
2012-12-15,84,71,63,70,65,62,99,82,55,30.13,30.05,9,2,17,0.01
2012-12-16,81,73,67,70,68,65,95,84,68,30.06,29.96,10,4,14,0.02
2012-12-17,84,74,68,70,67,65,95,79,54,29.99,29.87,6,2,11,0.00
2012-12-18,87,74,65,71,66,57,97,80,54,30.02,29.89,9,3,13,0.00
2012-12-19,88,72,58,66,60,54,94,69,41,30.10,30.01,9,2,13,0.00
2012-12-20,82,74,69,69,65,61,86,73,51,30.11,29.95,10,4,15,0.00
2012-12-21,71,62,46,68,44,26,90,57,22,30.18,29.91,11,5,19,0.00
2012-12-22,70,52,41,37,28,19,73,43,15,30.25,30.17,9,3,15,0.00
2012-12-23,74,59,45,57,46,31,86,63,38,30.26,30.16,6,2,7,0.00
2012-12-24,78,66,58,62,57,53,88,74,50,30.15,29.98,6,1,9,0.00
2012-12-25,81,69,59,65,61,56,92,77,54,30.05,29.92,7,2,8,0.00
2012-12-26,84,71,57,70,64,53,91,80,55,29.98,29.77,16,5,26,0.06
2012-12-27,68,56,45,53,48,41,90,74,47,30.09,29.98,7,2,13,0.00
2012-12-28,78,65,50,70,59,46,95,81,53,30.10,29.97,8,3,10,0.13
2012-12-29,84,72,55,74,67,49,96,87,64,30.11,29.88,13,5,16,0.00
2012-12-30,65,57,44,56,49,39,86,77,68,30.31,30.12,10,4,15,0.00
2012-12-31,74,68,63,60,57,55,82,69,56,30.33,30.21,10,5,16,0.00
2013-1-1,78,69,62,66,62,58,91,78,61,30.23,30.05,9,2,11,0.00